Theta_e
313 313 312 312 314 314 314 314 314 314 314 314 314 313 314 314 315 316 315 315 315 314 314 313 313 313 313 311 311 312 313 313 315 319 322 320 310 314 319 318 319 318 317 316 316 318 320 324 325 328 333 334 342 352 356 358 358 363 369 366 362 365 368 368 370 370 368 367 370 370 370 369 364 364 359 352 349 347 346 345 345 345 346 346 347 347 347 349
311 310 312 313 313 313 313 313 313 313 313 313 314 314 314 315 315 316 315 314 314 313 313 312 311 312 311 311 312 313 314 315 320 324 326 313 313 317 318 319 320 318 315 315 316 317 320 325 326 328 332 335 348 356 359 359 358 366 370 366 365 368 368 367 368 370 368 365 370 374 372 371 368 366 360 354 352 348 346 345 345 347 346 347 346 347 348 348
311 311 312 312 313 313 312 313 312 313 313 313 313 313 314 315 315 315 314 313 313 313 311 310 311 311 311 311 313 315 316 319 330 337 328 315 317 318 320 322 322 320 317 316 315 315 320 323 324 329 332 337 351 356 360 363 360 365 366 368 372 368 366 366 367 370 371 368 370 374 371 369 369 366 359 355 351 347 347 346 347 349 348 347 346 346 348 348
311 311 311 311 312 312 312 312 312 313 313 313 312 312 312 313 314 313 313 313 312 312 310 310 311 311 312 311 314 317 318 327 337 332 328 323 318 317 320 323 324 321 317 316 314 315 318 319 321 325 329 338 350 354 360 363 362 365 366 370 372 365 366 366 365 366 369 369 369 373 371 368 369 367 361 354 349 349 349 346 347 348 348 347 345 346 348 348
312 311 311 311 311 312 312 312 312 313 313 313 313 312 312 313 314 313 313 313 312 312 310 310 311 312 312 311 315 318 322 333 334 330 328 325 321 319 319 322 325 321 316 316 314 314 317 317 320 324 329 343 356 356 360 362 362 370 368 364 363 361 366 366 362 363 364 366 366 370 371 367 365 365 366 358 349 350 348 344 345 345 346 346 345 345 347 348
312 311 311 311 311 312 312 312 312 312 313 312 312 312 312 313 314 313 313 312 311 311 310 310 311 312 311 311 318 321 325 329 325 329 328 321 322 321 319 321 322 319 317 317 314 315 320 319 325 331 333 350 365 361 361 360 361 373 370 358 357 360 364 362 359 360 361 364 364 365 367 367 364 362 365 359 351 352 348 343 344 344 344 345 344 346 347 348
312 312 311 310 311 311 311 312 312 313 313 313 312 312 313 313 312 312 312 311 311 310 310 310 311 312 311 314 322 324 330 330 320 325 328 322 322 319 320 321 319 319 316 315 314 317 322 322 330 333 334 356 365 360 362 359 358 370 369 357 356 360 361 360 358 359 360 363 363 360 365 371 370 363 361 356 352 352 346 342 344 344 344 344 345 346 346 347
311 312 311 311 311 312 312 312 312 313 313 313 313 313 314 313 312 311 311 311 310 310 311 310 312 312 311 318 327 330 334 335 327 327 326 321 319 315 319 321 319 319 315 314 316 319 322 325 333 331 339 362 364 357 359 360 362 366 364 357 356 359 361 361 359 361 362 363 360 359 366 372 370 364 360 354 348 347 343 342 343 344 344 344 345 346 346 347
311 312 312 311 311 311 312 312 313 313 313 313 313 314 314 312 311 310 310 309 310 310 311 311 312 311 314 320 328 334 335 332 331 329 323 320 317 312 315 317 317 316 313 315 318 321 324 328 334 332 341 357 357 356 357 365 370 363 360 359 357 359 361 361 361 362 363 363 360 359 366 371 367 365 358 351 347 344 343 342 343 344 344 345 345 345 346 345
312 313 313 311 311 312 312 313 313 313 313 313 314 315 314 312 310 309 309 309 310 310 311 311 311 311 318 323 328 335 332 328 332 329 322 321 315 311 313 312 312 312 314 319 320 323 325 328 333 331 336 350 353 356 356 364 368 361 359 359 357 359 361 361 360 360 360 361 361 359 363 368 366 363 356 349 346 343 343 343 342 344 343 345 344 344 345 344
313 314 314 312 311 312 312 313 313 313 314 314 316 316 314 311 310 310 309 310 310 310 311 311 310 314 321 326 330 330 327 328 330 327 323 322 315 312 312 311 311 312 315 320 321 324 326 326 330 329 337 355 358 359 360 359 361 359 359 359 357 358 361 362 361 359 360 362 359 358 362 364 364 363 357 349 346 344 344 344 342 344 344 344 343 343 344 343
314 315 315 312 311 312 313 313 314 314 314 315 316 315 314 313 311 311 310 310 310 311 311 310 311 315 322 329 332 325 320 324 325 324 324 320 317 314 312 313 314 314 317 320 321 324 325 326 328 326 337 356 361 364 362 356 360 361 360 362 359 360 361 362 364 360 361 362 357 360 364 365 366 365 358 348 346 346 346 346 343 343 343 343 343 344 344 342
315 316 315 312 312 312 313 314 314 314 314 315 316 316 315 315 314 314 312 311 311 311 311 311 312 316 325 337 332 321 321 323 321 323 323 320 319 315 313 315 315 316 317 320 322 324 325 325 327 324 333 355 360 362 360 356 362 364 362 363 360 361 362 361 363 362 364 362 359 363 362 361 366 363 358 351 346 346 346 345 343 344 343 343 343 343 343 342
315 317 315 312 312 312 313 314 315 315 315 316 316 316 316 316 316 315 314 312 310 311 312 312 313 319 329 337 324 320 325 324 321 323 322 319 320 317 314 316 317 318 319 320 322 323 324 324 325 324 334 354 357 357 360 358 363 368 366 365 364 361 360 362 363 365 367 362 361 366 358 359 366 362 358 351 346 345 345 345 344 343 343 342 341 342 342 342
315 316 315 313 312 313 314 314 315 316 316 316 315 316 316 316 316 316 316 313 311 311 311 313 316 321 331 335 324 322 324 320 320 321 322 321 320 318 316 315 317 318 319 320 320 321 322 325 326 328 342 355 355 358 364 364 366 371 362 358 364 361 360 365 363 366 369 361 362 365 359 360 366 364 361 352 347 347 345 343 344 342 341 342 341 342 342 342
315 316 315 312 312 313 314 314 315 315 316 316 316 316 316 316 316 317 318 316 312 311 312 318 321 323 334 337 325 322 322 319 318 319 322 322 320 320 318 317 317 318 318 318 320 322 323 326 328 331 348 360 359 360 365 365 364 370 365 357 360 360 362 364 362 365 367 365 365 366 367 367 365 368 366 356 349 349 345 343 343 342 342 342 342 341 342 342
315 316 315 313 312 314 314 314 315 315 316 316 316 316 316 317 317 319 322 319 313 312 314 319 322 323 333 333 324 325 324 321 319 319 322 322 321 321 319 318 318 318 320 321 322 324 324 328 329 328 341 355 358 357 358 356 353 359 366 361 358 360 361 361 362 363 361 366 368 367 370 370 368 370 367 360 353 347 344 345 344 343 343 343 343 342 342 343
315 316 315 313 313 313 314 315 315 315 315 316 316 317 317 318 320 323 324 321 318 318 320 323 324 325 327 326 327 327 324 321 321 321 321 321 321 321 320 320 321 321 322 325 324 325 325 327 330 329 333 340 348 354 351 349 349 351 357 358 356 360 360 360 363 364 361 365 368 366 365 368 372 370 363 363 359 349 344 344 345 342 344 345 343 342 342 342
315 316 315 313 313 313 314 314 315 315 316 316 317 317 319 322 325 327 323 322 326 328 328 331 333 328 320 323 327 324 322 323 323 322 322 322 320 320 320 319 322 322 323 325 324 324 324 324 327 327 327 330 338 349 351 351 351 354 356 357 356 357 359 364 366 366 365 365 368 366 363 367 373 370 363 364 363 357 350 345 344 345 345 346 343 342 343 343
315 316 315 313 313 313 315 315 315 316 316 317 317 317 323 325 326 328 327 327 330 327 324 329 335 331 323 322 322 324 325 323 323 323 320 322 322 320 320 319 322 322 323 324 324 324 321 324 326 325 325 328 331 339 347 348 352 355 357 357 358 356 357 366 368 366 367 366 366 365 366 371 372 370 367 362 364 366 362 352 345 344 345 345 344 342 344 344
315 315 315 314 313 314 314 315 315 315 316 316 317 319 323 324 322 322 325 329 327 324 324 327 329 329 324 321 319 321 324 322 322 322 321 322 322 320 320 319 321 323 323 322 322 323 321 320 323 325 326 326 326 332 340 348 353 356 356 356 358 357 360 367 367 365 367 367 364 363 368 372 369 370 369 363 365 366 367 368 359 351 346 345 346 344 343 344
314 315 315 313 313 313 314 314 315 314 316 317 317 320 320 320 322 322 321 325 323 321 325 327 326 326 324 320 319 319 321 323 322 322 323 322 320 321 320 318 320 323 322 321 321 321 320 318 320 323 323 323 324 325 337 351 355 356 356 356 357 360 363 365 366 365 365 367 365 364 365 367 367 370 367 362 365 365 363 370 371 365 357 348 344 345 344 344
314 315 314 314 314 313 314 314 314 315 317 318 317 319 321 321 323 322 322 324 324 322 324 326 328 326 321 317 319 321 321 321 321 323 323 322 321 321 319 318 320 320 318 320 321 318 315 317 320 320 320 322 322 323 335 349 352 355 354 352 355 361 360 359 364 364 363 366 365 363 362 362 365 368 367 362 365 367 362 367 373 368 363 357 346 343 346 344
314 315 315 314 313 313 314 313 315 318 318 317 318 320 322 323 323 322 324 326 326 325 324 325 324 320 318 317 319 321 321 321 322 324 323 322 323 321 320 319 318 318 319 319 322 319 317 319 319 319 319 319 321 321 333 345 346 351 354 352 357 361 358 359 363 362 363 363 363 360 356 359 363 366 370 368 366 367 364 367 374 368 362 363 355 346 346 345
314 315 315 314 314 314 313 314 319 319 317 318 321 322 323 324 324 322 326 329 330 329 323 318 318 318 317 318 320 320 319 321 321 323 324 322 322 322 322 320 318 318 319 318 320 320 319 320 319 319 319 319 319 318 328 340 339 341 350 356 360 362 361 363 363 359 358 358 360 358 352 355 361 363 368 371 369 368 366 367 372 368 361 362 361 349 345 346
314 315 315 314 314 314 313 318 320 316 318 321 322 324 324 324 323 321 329 333 330 328 318 315 318 318 317 318 318 320 321 323 323 322 322 322 322 323 321 322 321 320 320 318 318 319 320 320 319 320 320 318 319 317 324 336 331 329 341 355 361 362 362 362 359 354 353 355 360 360 355 354 357 361 366 369 371 369 367 368 368 367 361 361 364 354 346 346
314 314 315 315 314 314 315 318 317 316 322 324 322 325 324 325 324 322 332 329 321 319 317 316 318 317 318 319 319 323 324 325 324 322 323 323 322 320 321 323 321 320 322 319 315 317 320 320 319 321 319 318 318 317 325 335 328 326 340 355 360 362 363 361 355 353 355 356 358 360 360 355 353 360 366 367 370 370 368 368 367 365 361 359 362 357 349 346
314 315 315 315 314 314 315 316 317 318 323 322 321 323 324 325 323 324 334 325 315 315 319 316 318 318 318 319 319 324 325 325 324 323 322 322 321 321 320 321 321 320 323 319 315 318 321 320 319 322 321 318 319 322 331 337 332 338 352 357 358 362 363 360 355 355 356 355 354 357 357 354 351 360 368 366 366 368 368 367 366 365 360 357 358 357 351 347
314 315 315 315 314 315 316 318 318 319 320 319 320 322 324 324 324 332 336 326 315 316 320 317 318 319 319 320 319 321 322 323 326 323 320 321 320 320 321 322 322 322 323 321 320 322 320 321 322 322 322 321 326 333 338 337 335 343 355 357 358 361 360 357 355 353 350 348 350 352 351 352 352 357 364 364 363 365 367 365 366 365 359 356 356 356 351 349
314 315 315 315 315 316 317 318 318 318 318 318 318 321 324 326 332 335 327 320 316 318 318 318 319 319 320 320 320 322 321 322 325 322 320 321 320 320 322 322 321 321 324 323 323 323 320 324 330 329 327 326 331 336 337 337 336 342 353 356 356 357 358 358 356 351 342 341 346 347 349 352 351 356 360 361 362 363 365 365 366 366 359 355 357 355 351 350
314 315 316 315 315 316 317 318 317 317 317 317 318 321 328 334 338 333 321 314 316 318 318 319 319 320 319 318 320 321 321 323 325 324 322 321 321 320 320 322 323 323 327 325 325 326 323 324 329 330 331 330 330 334 333 334 333 337 347 352 349 349 349 348 348 344 338 342 349 349 352 350 345 353 361 361 361 359 360 363 365 366 361 356 356 354 351 349
315 316 315 315 315 315 317 319 318 316 317 317 318 325 335 340 336 330 325 316 314 315 318 321 320 320 320 319 320 320 321 323 323 324 322 320 323 322 320 324 325 321 322 324 323 324 324 325 327 329 332 331 331 333 329 331 332 333 338 338 338 341 340 339 342 343 339 344 352 351 352 349 346 356 363 361 360 358 357 358 360 363 360 356 356 355 351 350
315 316 316 315 316 315 317 319 317 318 317 317 322 331 340 338 331 328 322 315 314 316 319 321 320 321 322 320 320 320 322 322 320 322 324 321 322 324 320 323 326 321 319 321 317 316 321 326 329 328 328 330 333 331 323 324 328 329 331 326 328 335 336 333 337 342 343 346 350 352 353 350 348 356 363 360 358 357 355 356 357 359 359 356 357 355 352 350
315 316 316 316 316 316 318 319 319 321 318 319 330 337 336 333 331 324 317 314 317 317 317 319 319 320 321 322 323 322 322 322 320 322 325 323 321 323 323 322 324 321 321 321 318 315 315 321 328 328 327 328 331 333 327 326 326 327 332 330 327 332 332 329 332 340 346 349 349 348 350 348 345 353 363 359 355 355 354 353 356 357 358 357 355 356 356 352
317 316 317 316 316 319 321 322 323 322 319 327 340 337 332 330 325 317 315 317 317 317 317 318 318 317 318 321 322 322 322 322 322 323 325 323 320 321 323 323 323 324 324 321 320 318 315 319 329 328 328 329 328 331 328 327 325 327 332 328 323 330 333 329 334 341 343 349 352 347 347 351 355 362 366 360 355 355 354 353 355 357 358 357 357 358 358 354
316 316 316 315 317 322 323 323 325 324 324 335 340 333 333 331 320 313 318 320 316 316 317 317 320 317 315 319 321 321 323 321 322 324 324 324 323 322 323 323 323 324 323 320 321 321 316 320 328 326 328 331 329 328 328 326 326 327 325 322 325 331 332 325 325 332 336 341 346 343 345 354 357 362 364 360 358 356 355 354 356 358 358 358 358 357 357 357
318 319 320 317 319 323 322 321 323 325 328 333 332 332 335 329 317 316 321 318 315 317 317 316 318 317 313 315 318 319 321 320 320 322 322 321 323 323 323 324 322 322 323 321 322 322 318 319 326 326 326 329 327 327 327 327 329 326 317 321 328 328 332 330 322 322 328 337 343 342 345 347 345 354 365 362 361 360 358 356 355 358 359 358 358 356 356 359
321 324 323 320 320 322 321 320 324 326 327 326 329 337 338 328 319 318 318 316 316 318 317 314 315 317 316 314 316 318 320 317 317 323 321 319 321 322 321 322 323 322 322 323 324 324 320 318 324 328 325 326 328 323 322 324 328 326 319 323 325 319 323 327 320 317 320 333 346 345 345 347 345 352 361 361 364 364 360 358 357 359 359 358 357 357 357 359
322 327 326 323 322 324 321 322 325 327 324 324 330 336 331 322 320 317 318 317 318 317 317 315 315 318 319 316 316 319 319 316 319 324 322 320 322 323 321 321 321 321 321 323 324 324 325 319 319 328 325 324 326 322 319 321 323 324 322 323 323 320 323 321 319 322 321 330 344 343 340 347 350 356 360 360 364 365 362 360 357 358 359 357 357 357 359 360
323 326 328 326 323 325 324 323 323 323 324 327 333 331 322 317 316 318 319 317 317 318 317 316 316 318 320 320 319 319 320 320 320 323 322 321 321 321 321 320 320 321 322 324 324 325 331 324 316 324 328 323 323 323 323 323 321 319 317 316 317 319 323 320 319 325 324 331 343 343 342 348 355 363 366 362 362 362 363 362 358 356 356 356 356 356 359 360
325 323 327 326 322 324 323 320 319 324 327 329 330 325 320 320 318 318 319 317 318 319 316 317 319 319 320 321 320 319 321 323 321 322 321 320 320 321 322 319 320 322 323 324 324 322 328 327 318 320 324 319 321 327 326 324 325 322 318 318 318 317 317 315 318 324 322 325 335 342 346 352 360 365 365 366 369 366 363 362 359 356 355 355 356 356 358 359
327 322 324 322 322 323 320 321 325 327 327 326 325 322 322 322 318 316 318 318 318 317 318 320 319 320 321 320 321 321 322 324 323 323 320 319 321 320 320 320 320 322 325 323 323 324 328 330 323 320 322 322 323 327 326 325 326 323 321 322 321 320 319 314 318 325 317 319 336 346 349 356 364 364 362 363 369 370 367 364 361 359 354 352 352 352 352 355
328 324 325 319 323 323 318 324 331 328 324 324 322 319 319 319 316 316 318 317 317 316 318 320 319 321 322 320 321 321 322 323 322 323 322 321 322 319 320 323 320 323 326 322 322 326 330 330 324 325 334 335 330 330 332 330 327 324 324 324 320 320 321 317 324 329 316 319 339 346 345 355 363 364 363 361 362 364 364 365 365 365 360 355 356 357 358 360
325 325 326 321 324 323 318 323 327 328 328 326 320 316 317 318 318 319 318 317 318 316 317 319 319 319 320 320 320 321 322 321 319 321 323 321 322 322 321 322 320 321 322 323 326 324 324 331 333 331 334 334 331 332 331 327 327 326 326 330 330 332 332 325 329 330 315 318 337 342 343 354 361 362 361 359 360 360 359 360 362 365 366 362 363 366 367 369
327 328 329 326 325 322 322 323 322 323 326 326 322 317 318 319 318 318 317 317 318 316 316 318 318 319 321 321 320 322 324 322 319 322 324 321 321 322 321 321 321 322 326 333 338 330 324 334 340 334 328 326 325 327 325 326 328 326 327 334 337 340 343 333 330 331 322 326 343 347 348 358 361 359 356 355 359 359 358 357 356 358 362 362 363 365 366 367
329 327 329 331 329 325 324 323 319 317 322 328 330 321 316 319 317 317 317 317 316 315 317 318 317 320 322 322 323 325 326 324 323 325 324 323 322 319 321 322 318 326 341 342 338 337 337 337 341 338 332 329 331 333 333 331 326 322 328 338 339 341 345 340 341 342 336 340 352 352 352 357 356 354 352 352 356 358 357 357 355 357 359 359 361 361 361 363
329 328 330 331 333 333 330 327 324 319 321 328 327 319 317 318 317 317 317 317 317 317 319 321 320 319 321 325 326 326 329 327 327 328 325 325 325 321 322 323 319 334 350 340 333 344 342 330 328 330 329 329 333 333 330 328 325 325 333 340 340 343 344 345 347 347 343 349 355 353 353 354 353 354 353 352 354 356 356 355 355 356 356 357 359 358 358 360
329 330 332 331 334 338 334 334 332 324 321 324 322 317 318 317 316 318 318 317 317 318 323 324 321 320 322 327 329 329 333 331 329 332 330 328 329 325 324 324 322 331 339 330 330 340 334 324 324 323 323 326 327 326 328 330 332 336 339 339 340 342 343 345 346 348 348 351 353 351 352 353 354 354 352 351 353 353 352 351 351 353 354 354 355 356 356 356
334 333 334 333 335 337 334 333 332 325 324 329 327 321 318 317 319 317 316 318 319 318 321 322 320 320 324 332 339 338 335 331 327 331 332 329 330 328 324 327 327 327 326 322 326 332 329 329 331 325 324 327 327 326 329 330 332 336 339 340 341 342 343 344 345 346 348 348 349 350 353 354 353 352 350 350 351 349 349 350 350 353 354 352 351 352 352 351
335 336 334 334 338 339 335 332 329 324 325 330 329 324 320 318 318 316 314 316 317 318 320 318 318 320 321 331 339 334 333 336 332 330 329 324 328 330 326 326 327 325 325 324 325 329 326 327 333 331 324 325 327 327 327 328 332 335 337 339 341 341 343 345 345 347 349 348 349 351 354 354 352 349 347 347 348 348 348 349 352 353 353 351 350 350 350 350
325 329 331 335 344 347 339 331 328 326 327 329 328 325 323 320 318 318 317 318 316 316 319 317 318 322 324 329 330 323 326 333 327 325 324 319 322 328 326 326 326 324 326 325 325 329 327 328 337 338 326 321 324 327 328 327 328 331 335 339 340 341 343 344 346 349 350 349 350 353 355 355 351 346 344 343 346 349 350 350 352 351 350 350 349 348 349 348
319 325 328 333 345 349 340 332 329 328 329 328 326 324 323 320 320 322 324 322 318 316 318 316 318 326 328 326 325 321 321 322 319 319 320 316 318 323 323 324 324 323 327 328 327 330 332 329 330 330 325 324 326 325 326 328 327 327 331 337 341 342 344 346 348 348 348 349 352 354 353 351 348 344 344 343 344 348 349 349 350 350 348 348 347 348 348 347
Wind_Speed
11 11 10 9 10 10 11 12 12 13 13 13 14 14 14 13 13 12 12 12 13 13 13 12 11 11 11 12 12 11 13 14 12 6 8 9 8 11 11 7 5 10 11 7 6 6 5 6 10 10 6 4 3 4 4 4 2 3 2 2 2 3 4 4 6 4 2 4 3 3 2 7 5 2 3 6 10 12 10 9 10 11 12 14 19 28 31 31
13 12 11 11 11 11 12 13 13 13 14 14 14 14 14 13 13 12 11 12 13 13 13 13 11 11 11 11 10 10 14 15 12 9 10 8 6 14 13 8 5 7 9 9 9 8 5 4 7 7 4 2 2 4 4 3 3 2 2 2 3 5 4 4 6 4 2 5 5 3 3 5 5 4 5 7 8 11 11 10 13 14 14 15 20 27 28 29
15 14 13 13 13 13 14 14 14 14 14 15 15 15 15 14 13 12 11 11 12 12 12 12 11 11 10 9 8 10 14 11 6 6 3 3 10 14 13 11 7 6 7 7 8 10 9 4 5 5 3 3 2 5 4 3 3 2 2 2 3 4 3 5 7 4 1 4 6 3 2 2 4 3 4 9 11 11 12 12 15 16 16 15 15 22 27 26
17 16 15 14 14 15 15 15 15 15 16 15 15 15 15 14 13 12 12 11 11 11 11 12 11 10 9 8 7 10 10 5 2 2 3 4 8 11 12 12 9 8 6 5 6 9 11 7 7 5 4 4 3 6 5 3 3 2 3 2 1 1 1 4 6 0 5 1 6 4 3 1 4 1 3 11 11 7 10 13 17 19 19 17 14 19 25 23
18 17 16 15 16 16 16 16 16 16 17 16 16 15 14 13 12 12 11 11 11 10 11 10 10 9 7 6 6 8 6 2 1 4 2 4 5 8 11 12 10 9 7 6 6 7 10 8 5 4 4 4 4 5 4 4 3 2 2 1 3 1 1 5 5 4 7 3 1 4 4 2 1 2 3 11 10 6 9 14 19 20 19 17 14 18 22 21
20 19 17 16 16 17 17 17 17 17 17 17 17 16 15 13 12 11 10 10 10 10 10 9 9 7 7 6 4 5 3 1 4 4 2 3 5 7 11 13 12 11 9 7 6 5 6 6 4 4 3 3 4 5 4 3 3 2 1 3 4 1 2 6 7 6 8 5 4 2 1 2 2 2 3 9 9 7 10 16 18 19 21 20 17 18 17 16
22 20 18 17 17 17 17 18 18 18 18 18 17 16 14 13 12 11 10 10 9 10 10 9 8 7 7 5 2 2 2 4 6 5 4 1 3 6 11 13 14 12 10 9 8 4 3 4 3 3 2 2 4 4 5 4 3 2 3 4 4 4 7 7 7 9 9 7 2 7 4 5 4 2 3 7 10 10 14 16 17 19 22 20 16 15 14 15
24 22 19 18 17 17 17 17 18 18 19 19 18 17 14 13 12 11 10 10 9 10 9 9 7 7 9 5 1 2 0 5 5 8 6 3 4 7 12 13 14 14 13 13 10 5 2 3 4 4 2 3 4 6 8 5 2 1 5 4 3 5 7 6 8 10 9 8 2 7 3 4 3 2 2 7 13 14 16 16 17 18 18 16 14 14 13 13
25 23 21 19 17 17 17 17 18 19 19 20 19 17 15 13 12 11 10 10 9 9 8 8 5 6 9 5 1 2 3 5 6 8 5 4 5 8 13 14 15 16 14 14 11 5 2 2 5 4 3 3 3 8 10 4 1 2 6 6 6 7 5 5 8 9 7 6 5 6 5 3 3 4 2 9 14 15 17 17 17 16 15 14 13 13 12 12
25 24 22 19 18 17 17 17 18 19 20 20 19 16 14 13 11 11 10 9 9 9 9 7 4 6 7 4 1 1 3 3 5 6 4 4 6 10 13 13 16 17 13 11 10 7 5 6 6 4 4 2 2 3 6 4 4 7 10 9 9 8 4 5 8 9 7 6 7 4 5 5 6 5 3 9 14 17 17 16 16 14 14 15 13 12 14 13
25 24 22 20 18 17 17 17 18 18 19 18 18 15 13 12 11 11 10 9 8 8 9 7 4 5 5 3 1 2 3 4 3 3 4 3 6 10 13 14 16 18 13 8 10 14 13 13 10 5 3 1 5 7 6 7 10 11 12 12 10 7 4 6 9 9 7 5 5 5 3 7 7 4 5 10 14 18 17 16 15 13 13 14 14 12 12 13
25 24 22 19 18 17 16 17 17 18 18 18 17 14 13 12 11 10 10 9 8 7 8 6 4 5 4 2 4 6 3 1 3 4 4 2 2 5 10 13 14 16 14 8 10 16 15 15 11 5 3 3 4 5 7 8 10 8 7 11 9 6 5 5 6 7 8 3 0 5 5 5 5 3 6 11 13 16 16 16 14 12 12 12 13 11 9 12
25 24 21 19 17 16 16 16 17 17 17 17 15 13 12 11 11 10 9 8 7 7 6 4 3 4 4 1 7 7 8 9 9 9 9 2 1 2 8 13 12 12 13 11 10 13 14 16 11 5 2 4 3 4 7 6 5 4 4 8 7 4 3 5 3 6 8 4 2 3 4 3 7 8 6 11 13 15 15 14 13 11 11 11 10 9 7 11
25 23 21 18 16 15 15 15 16 16 16 16 15 14 12 10 10 10 8 6 5 5 4 3 3 1 2 4 10 8 9 10 8 12 12 5 3 4 8 12 13 13 14 15 15 14 16 19 12 4 0 5 6 7 9 4 2 3 3 4 4 4 2 1 2 5 6 1 2 3 4 6 8 7 7 11 14 16 14 13 12 10 10 9 10 10 7 11
24 23 20 18 16 15 15 16 16 16 17 17 18 17 14 12 10 9 7 5 4 3 3 4 2 0 1 6 10 6 6 9 11 14 12 10 9 6 10 13 15 16 16 18 19 17 17 16 7 3 4 9 11 7 5 3 0 1 3 1 1 3 4 4 3 3 6 2 2 3 4 3 5 6 6 10 13 15 15 13 12 10 10 9 10 10 8 9
24 22 19 17 15 15 15 16 17 18 19 19 20 20 18 14 11 9 7 5 4 3 2 2 0 1 1 5 7 6 5 8 10 13 12 13 13 9 13 15 14 16 18 19 19 18 14 7 2 3 6 9 8 6 4 3 1 2 2 2 2 4 5 4 1 0 7 5 1 3 3 2 3 5 3 7 13 14 14 12 11 11 9 10 9 9 9 8
23 21 18 16 15 15 15 17 18 19 21 22 23 23 20 16 13 9 6 4 3 4 2 1 1 1 3 7 6 5 6 6 7 10 12 14 15 14 14 11 9 12 14 15 14 11 6 1 1 2 5 5 3 6 4 1 2 2 2 2 1 4 5 6 3 2 4 5 2 4 1 3 3 3 2 5 10 12 13 11 11 11 9 8 9 9 9 8
23 20 17 16 15 15 16 17 19 20 22 23 24 25 21 14 11 7 2 1 1 2 2 2 1 2 3 6 4 5 6 7 7 9 12 14 15 15 13 8 5 6 4 5 6 4 0 2 1 2 3 4 4 5 4 4 6 5 4 3 2 3 4 6 7 6 6 5 3 4 1 7 4 1 2 2 6 10 11 11 11 12 10 8 8 10 9 8
24 20 18 16 15 16 16 18 20 21 23 23 25 25 18 8 5 2 4 4 3 0 2 2 2 1 3 6 6 6 5 7 8 6 8 10 11 12 11 7 4 3 1 1 3 3 1 2 2 2 3 6 7 7 7 8 8 9 7 5 5 4 2 4 5 6 9 7 5 3 2 6 3 2 3 4 1 6 7 9 11 11 9 8 9 10 8 8
23 21 18 16 15 16 16 18 20 22 23 25 27 21 10 5 4 2 2 3 4 5 5 5 5 2 5 6 5 2 2 5 4 3 6 6 6 7 7 4 2 2 2 3 3 3 3 2 2 5 6 7 8 10 11 9 7 10 7 5 6 5 2 2 4 5 8 6 6 7 1 4 3 4 4 6 3 4 5 6 10 11 10 9 10 10 9 8
24 22 18 16 16 15 16 18 19 21 23 25 23 11 1 2 2 3 4 3 6 9 8 8 10 8 11 11 9 5 1 1 2 3 7 5 4 6 3 1 3 3 4 4 2 1 4 4 7 8 8 10 9 8 9 8 9 10 7 6 5 4 2 2 4 5 5 3 6 9 5 2 2 3 3 4 4 3 5 3 4 8 10 10 11 11 9 8
24 21 18 16 15 15 17 17 18 21 21 20 16 3 4 6 4 8 7 4 9 8 8 9 9 9 15 18 16 8 1 1 4 5 6 4 4 4 2 2 4 5 4 2 1 0 2 4 10 11 10 10 8 6 7 7 11 8 6 6 5 4 4 4 4 5 4 1 4 7 5 3 1 4 5 2 2 2 1 2 1 2 3 6 12 11 9 10
24 21 19 16 15 17 16 18 21 19 15 16 13 7 8 10 10 14 8 2 8 8 5 6 5 6 11 12 10 5 2 2 3 5 6 6 3 4 3 3 5 5 2 3 4 3 3 8 12 12 9 8 8 7 7 7 8 6 7 6 4 7 5 1 4 7 2 1 4 7 4 1 3 4 6 2 2 2 3 1 1 0 1 4 9 10 10 12
23 22 19 16 17 16 17 21 19 12 14 20 17 10 9 9 9 10 5 1 4 6 5 6 5 4 6 5 4 5 2 3 3 4 7 9 4 3 4 4 5 4 4 6 7 6 8 10 8 9 8 8 9 7 7 6 5 7 9 7 7 10 7 3 8 8 3 2 5 9 4 0 1 3 6 4 2 0 3 2 4 3 2 3 6 8 12 14
23 21 18 17 16 16 20 18 8 8 19 20 13 14 16 9 6 5 2 2 2 5 4 4 2 2 3 2 4 5 1 2 4 5 7 9 6 3 2 3 4 5 7 7 7 6 11 9 4 6 9 8 8 7 6 7 5 5 9 11 14 14 8 10 14 9 4 0 4 7 4 2 3 4 7 5 2 2 2 1 4 6 4 2 4 7 11 13
23 21 18 17 16 18 18 9 5 16 19 10 10 19 18 14 11 5 2 4 2 4 3 0 1 1 2 2 4 2 3 3 5 8 9 9 7 4 1 2 1 5 7 5 4 3 8 8 6 8 10 9 8 6 6 8 6 3 8 12 15 13 12 17 18 9 3 3 5 7 4 3 3 6 9 7 5 7 4 4 5 6 4 3 5 6 9 11
22 21 18 17 17 17 12 6 13 18 9 6 16 20 17 19 19 8 3 4 3 3 1 1 1 0 2 4 4 4 2 4 3 6 9 8 6 4 3 3 2 3 2 1 3 4 6 6 6 8 8 7 6 5 6 8 7 3 7 14 17 15 15 18 15 6 3 3 3 5 2 3 4 7 10 9 8 10 9 7 7 7 6 5 5 6 8 11
22 21 18 16 16 16 12 11 15 12 6 13 21 20 19 22 18 5 4 2 2 1 2 2 0 1 3 4 4 3 5 3 1 3 6 8 7 4 2 4 3 4 4 0 4 6 4 6 7 8 6 5 5 6 8 7 6 3 7 17 17 16 16 15 10 4 2 4 3 6 4 1 2 3 6 8 9 12 13 13 11 9 9 7 7 7 8 10
21 21 18 16 16 16 12 12 12 9 10 17 21 23 24 20 10 3 4 2 1 2 2 0 1 2 2 0 1 3 4 1 3 4 3 6 7 2 2 5 4 6 6 4 5 7 5 6 8 7 5 6 7 8 9 8 5 5 12 14 9 10 13 11 6 4 4 2 2 9 8 3 1 2 6 6 8 13 14 13 11 11 11 10 8 7 8 10
20 20 18 16 15 14 13 15 13 8 12 18 23 27 22 10 3 5 3 0 1 3 1 1 1 2 2 0 2 4 3 2 3 2 1 1 1 1 1 3 2 4 5 3 5 8 7 4 4 4 4 6 7 7 7 6 6 9 13 11 9 7 5 4 2 3 3 2 4 11 12 5 1 3 6 8 12 16 14 10 10 11 12 12 9 7 8 10
19 19 19 16 15 13 10 12 11 10 15 21 25 23 12 4 4 4 1 1 0 3 1 1 3 2 5 5 3 2 3 4 2 2 1 1 3 1 2 2 1 2 4 4 4 5 4 3 2 3 3 3 3 0 2 2 4 8 9 8 8 3 2 3 4 3 2 3 4 9 11 6 2 3 7 12 14 14 14 12 13 14 14 13 10 8 8 10
18 18 18 17 17 16 12 12 14 18 22 22 19 12 4 4 3 1 1 0 0 2 1 4 5 3 5 7 5 4 3 2 1 2 3 2 1 2 3 2 1 2 4 3 3 4 4 3 3 2 1 3 6 3 4 5 4 6 7 7 7 2 1 1 1 1 2 4 3 8 10 4 4 4 9 15 14 10 13 15 16 16 15 14 11 8 7 9
17 17 18 17 17 19 19 20 21 22 22 18 11 4 5 5 2 2 2 1 1 3 3 3 5 4 4 4 4 4 2 1 2 3 4 4 2 3 3 4 5 3 1 3 3 3 3 5 4 2 3 0 5 4 1 2 2 4 7 7 6 4 3 3 2 1 2 4 1 7 7 2 4 3 6 15 16 12 12 14 15 16 15 14 12 9 7 9
17 16 17 17 18 21 20 19 19 19 17 10 5 4 6 3 3 3 3 2 3 3 3 3 3 3 3 3 3 3 2 1 1 4 3 2 1 2 3 4 5 5 2 2 3 1 1 3 3 2 3 2 3 4 6 4 2 0 4 5 5 5 5 5 4 3 3 2 2 5 4 2 2 3 5 10 13 11 11 12 13 13 13 13 11 8 8 9
16 15 16 18 19 18 14 14 14 10 6 4 5 4 4 0 4 4 2 3 3 4 6 7 3 1 0 3 2 3 3 0 2 3 2 2 2 1 1 3 2 3 3 1 3 1 2 4 6 3 2 3 3 2 4 6 3 3 2 4 3 5 5 3 3 5 4 2 3 3 3 3 3 3 4 5 8 10 10 10 11 12 13 12 10 9 8 8
16 15 15 17 17 13 11 14 9 2 3 5 5 3 0 3 3 1 2 3 3 3 8 9 4 3 2 3 1 1 2 1 2 2 1 1 2 0 1 2 3 1 2 0 1 2 2 4 6 3 2 4 5 4 4 6 2 2 0 2 4 4 6 3 0 2 5 3 1 2 3 3 1 3 2 5 8 9 10 11 13 13 14 13 12 11 8 7
17 15 12 16 17 12 12 16 7 5 5 6 4 1 3 4 4 2 2 4 4 2 4 5 4 3 3 3 2 2 1 2 1 2 1 1 1 2 1 3 5 3 1 2 0 1 1 3 7 2 4 7 3 5 3 3 5 3 0 4 3 2 4 3 1 2 3 2 2 3 3 3 1 2 1 6 8 9 10 12 13 13 14 14 13 12 10 8
16 13 11 17 15 9 11 14 6 7 5 4 1 3 3 4 4 3 2 4 4 3 4 1 2 2 3 4 4 4 2 1 1 2 1 1 1 2 3 3 5 8 6 3 2 2 2 1 7 2 3 6 1 5 0 3 1 4 3 2 1 2 1 1 2 1 1 1 2 3 3 3 3 2 2 6 9 10 10 10 12 14 14 14 13 12 11 8
11 7 5 10 9 5 10 8 7 6 4 2 1 3 2 4 4 4 5 4 2 3 3 1 2 2 2 4 3 4 2 2 1 3 2 1 1 2 5 4 5 9 8 5 4 2 2 3 3 6 4 2 3 3 2 3 3 1 2 3 1 3 3 2 2 3 3 2 2 1 2 2 3 3 3 6 8 9 9 9 10 13 14 13 12 12 10 8
5 3 5 8 4 8 11 3 7 4 2 2 3 3 5 4 4 5 7 6 2 1 1 2 3 3 3 5 5 3 3 4 2 3 2 2 1 2 5 4 4 7 7 8 6 2 2 4 1 7 7 3 2 0 4 4 1 2 1 2 1 1 1 1 1 2 4 3 2 1 1 4 3 3 4 6 8 8 9 8 8 10 12 11 11 11 9 6
3 2 5 7 7 15 11 2 4 2 2 3 3 3 6 4 2 5 7 7 3 1 1 1 1 1 2 3 4 3 3 3 2 3 3 2 2 1 2 2 3 4 5 7 6 3 2 2 1 4 5 3 3 5 3 4 4 5 4 4 4 3 1 1 3 3 2 4 4 4 2 5 3 3 4 2 5 6 8 9 8 7 10 10 8 8 7 5
1 0 7 10 14 17 8 2 3 1 3 4 4 4 4 2 0 4 5 6 4 1 2 2 1 2 2 1 2 2 4 2 2 4 2 1 3 1 3 3 4 3 3 3 3 3 1 3 3 2 4 3 7 8 3 1 1 4 3 2 3 4 4 4 3 3 1 2 2 3 1 4 3 4 5 3 5 4 4 7 7 7 9 10 8 8 8 7
1 4 14 18 17 9 0 1 4 1 2 5 5 4 3 1 1 3 3 3 2 2 3 3 2 2 2 1 2 3 4 1 2 3 2 1 3 2 4 5 6 4 4 3 3 4 1 3 2 3 5 5 7 7 5 7 7 3 2 4 2 1 3 5 5 3 2 2 1 3 1 4 3 4 5 4 6 8 7 4 4 4 4 7 8 7 6 6
1 4 10 16 17 7 3 2 4 2 4 6 2 1 0 0 1 2 2 3 2 3 3 2 2 2 2 1 3 5 4 2 2 3 2 1 2 3 5 7 5 4 2 1 1 2 3 2 3 3 4 6 7 8 8 7 6 2 2 6 6 6 4 1 1 3 2 2 2 5 2 5 3 5 7 8 9 10 10 8 6 5 3 3 4 4 3 3
3 3 4 11 15 7 3 4 2 2 4 4 1 2 2 2 3 2 2 1 1 2 2 3 2 3 3 3 5 7 7 4 2 3 3 3 3 4 7 8 5 3 1 3 3 1 1 2 3 4 3 2 2 3 4 4 4 2 3 7 9 10 8 3 2 4 2 2 2 4 3 3 4 9 11 10 10 11 11 10 8 7 5 4 3 4 3 3
2 2 3 6 7 4 1 3 1 1 4 1 2 1 2 1 3 2 1 0 0 2 2 2 3 4 4 5 5 5 7 6 4 4 4 4 4 4 5 8 7 5 4 3 2 2 3 2 2 5 5 3 4 6 6 4 3 4 6 9 9 10 10 7 4 3 3 1 4 5 2 4 8 11 11 10 10 10 10 10 9 8 7 5 3 3 2 2
1 1 2 4 4 4 5 4 4 4 6 2 2 1 1 1 1 1 2 0 0 3 3 3 5 5 4 4 4 3 4 6 6 4 3 3 3 4 6 7 8 9 8 5 4 3 4 3 4 2 1 3 3 6 7 2 4 6 9 10 9 11 14 13 5 1 3 4 4 6 8 9 8 10 8 7 8 9 9 8 7 6 6 6 5 5 6 6
1 1 2 3 2 2 4 5 7 9 5 3 2 1 1 4 2 0 1 0 2 4 3 3 6 5 5 5 4 1 3 5 5 3 2 3 3 5 7 6 5 7 7 4 4 3 5 2 4 4 5 6 6 9 8 10 11 9 12 12 11 13 15 14 9 5 6 7 3 5 11 11 8 9 8 5 6 8 8 7 6 5 6 7 8 9 9 9
2 2 3 4 2 4 4 6 9 9 3 3 2 1 0 3 3 1 0 2 3 3 3 4 7 4 3 6 5 2 0 2 1 3 1 2 4 3 4 5 5 5 4 3 3 3 4 2 4 5 6 7 8 8 7 11 11 11 13 13 12 14 14 13 11 11 13 10 6 8 12 11 8 7 7 5 4 5 6 7 8 8 7 8 9 10 10 9
2 2 3 3 3 4 4 4 5 6 4 3 1 2 2 3 3 2 2 4 2 3 2 4 6 6 2 5 6 3 2 6 4 1 1 4 4 2 1 1 3 4 5 3 2 3 4 2 4 5 5 4 5 7 7 9 12 14 13 10 11 13 13 11 8 8 9 6 5 9 10 9 6 5 7 7 5 6 9 11 10 9 8 9 10 10 8 7
4 5 4 2 3 4 3 3 4 4 4 3 2 2 1 3 2 1 2 2 2 2 2 3 5 5 4 6 7 3 0 4 3 0 1 2 2 3 2 1 2 2 4 3 2 3 3 2 3 5 5 4 4 6 6 7 13 16 12 9 11 11 10 9 7 7 6 3 5 8 7 5 5 4 6 9 9 11 12 11 10 9 9 11 11 9 8 6
9 6 4 0 3 4 4 3 4 3 2 4 5 4 2 2 3 4 3 4 2 4 4 3 4 4 4 6 4 2 3 2 1 2 2 1 3 4 3 2 1 1 0 1 2 2 2 2 2 4 3 4 5 4 5 5 9 9 5 6 10 11 10 10 9 10 8 4 3 4 3 3 4 4 7 10 11 11 10 8 9 9 10 10 9 9 8 7
Wind_Direction
355 358 358 354 353 353 351 351 349 345 343 339 336 335 334 337 337 339 337 335 336 333 335 337 338 339 341 345 341 339 332 321 318 293 238 262 252 198 180 160 164 189 195 199 208 210 215 223 226 225 224 218 176 148 132 114 151 142 137 151 167 219 217 195 178 180 156 143 186 252 127 126 154 158 125 134 130 134 134 129 128 116 113 126 132 133 132 131
0 0 358 357 355 353 352 349 347 345 343 339 337 335 333 334 335 338 337 336 335 334 336 336 337 342 349 351 347 341 331 322 310 277 249 257 212 188 187 173 165 180 185 198 213 205 196 214 221 215 207 216 148 154 167 163 187 157 138 153 187 220 211 175 166 179 179 145 171 215 139 134 167 167 133 139 139 130 127 128 124 116 121 132 135 134 134 134
3 1 359 356 353 350 350 347 347 345 343 341 337 334 334 334 334 334 334 332 330 332 332 332 335 343 355 356 353 345 330 326 306 273 273 206 195 189 183 179 185 191 188 205 221 210 209 251 261 232 197 225 165 158 189 191 188 168 147 185 218 220 192 166 165 177 261 141 158 179 126 139 191 169 117 140 143 136 137 138 130 129 138 145 143 135 135 136
4 2 359 355 350 348 347 347 346 345 345 342 338 336 334 333 333 330 331 330 329 332 332 333 338 345 359 358 354 345 330 336 311 247 68 106 188 194 191 187 189 200 210 230 235 220 228 265 282 264 230 229 159 147 180 176 181 183 166 198 239 255 232 146 144 100 337 142 163 149 107 154 208 163 98 135 140 141 146 144 140 140 146 151 149 138 139 141
5 3 359 354 349 346 346 346 344 344 346 343 341 340 336 336 334 330 328 329 331 334 335 337 343 351 358 357 352 344 343 52 239 228 117 93 159 189 197 192 192 201 212 234 238 229 240 252 255 247 232 204 154 150 177 160 142 161 187 129 69 24 258 100 95 17 3 4 101 118 130 195 189 66 96 135 140 159 154 145 142 143 147 153 150 140 141 143
5 3 360 355 349 346 346 345 344 345 345 343 342 342 340 339 337 335 331 331 335 335 339 344 347 353 353 355 352 349 22 161 257 234 183 97 132 175 188 192 196 201 211 224 220 217 239 238 211 220 223 164 174 177 163 156 152 176 179 80 50 29 119 77 71 50 43 35 359 340 246 349 46 57 101 132 141 157 146 141 141 141 145 149 145 140 143 145
3 2 360 355 350 347 345 344 344 344 345 345 344 345 345 345 345 344 339 339 340 337 344 351 351 351 351 0 1 30 80 260 258 211 197 136 135 175 178 186 194 196 205 206 198 203 231 228 219 231 216 161 194 170 136 141 163 179 94 86 20 50 86 72 83 81 72 79 4 292 306 31 56 33 29 120 136 139 135 136 136 139 143 145 142 142 148 150
1 1 358 355 351 347 345 344 344 344 346 348 349 350 350 352 352 349 347 346 342 343 349 355 358 352 355 7 6 18 255 250 220 183 193 189 179 184 176 182 194 195 196 197 193 193 215 245 240 234 229 200 181 143 137 124 123 124 89 94 35 68 83 76 98 96 90 98 29 303 319 69 80 21 10 132 134 132 133 135 135 140 144 142 143 148 154 159
360 359 356 354 350 347 346 344 346 347 349 352 352 352 352 353 355 355 355 350 346 347 351 357 360 357 359 357 5 11 268 231 184 181 187 186 192 184 180 184 186 185 192 203 204 204 224 253 234 228 263 247 164 148 158 141 63 119 101 102 97 96 78 60 89 90 86 90 53 352 348 42 44 26 95 145 138 132 133 136 140 144 144 145 150 156 163 169
358 357 355 352 349 347 346 345 347 349 352 354 353 353 352 353 355 358 357 356 352 345 351 2 2 6 7 353 44 49 267 224 178 186 168 179 196 182 183 184 178 178 189 204 208 213 213 225 243 271 290 283 56 115 164 149 101 105 99 90 87 95 72 58 80 80 67 50 64 52 333 351 21 25 146 156 141 135 136 139 145 147 146 152 157 163 169 174
356 355 353 351 348 347 345 345 347 349 354 356 356 355 353 352 352 356 357 355 352 346 351 355 358 10 20 30 72 216 215 166 151 176 164 186 201 191 190 183 176 180 187 200 219 221 220 235 254 282 286 165 60 51 81 106 108 112 104 85 69 64 53 71 89 90 76 29 49 91 9 354 6 5 173 159 142 137 139 144 151 153 152 159 163 166 172 174
355 354 352 350 348 346 344 344 345 349 355 358 358 354 351 350 347 352 357 354 350 346 346 346 359 10 19 41 218 229 232 234 286 254 208 165 191 204 194 184 182 186 190 197 232 237 238 253 263 277 275 141 101 72 93 105 111 123 113 93 78 55 41 45 79 112 112 87 197 107 55 352 327 292 180 153 143 138 140 149 157 161 161 164 164 167 171 169
354 353 351 349 347 345 342 341 344 347 352 356 356 351 344 342 340 345 352 351 345 337 343 355 348 352 25 308 238 259 298 306 298 244 213 151 50 197 185 190 196 198 200 207 243 257 255 263 264 256 246 117 103 107 117 113 113 130 113 104 103 80 38 0 34 118 107 101 217 111 80 248 262 267 198 155 145 142 144 156 164 169 169 165 162 167 169 162
354 353 350 348 346 343 339 339 342 343 347 350 351 347 338 332 330 334 342 340 330 329 338 350 331 9 76 263 268 291 300 304 289 224 204 186 204 210 195 200 210 214 215 225 247 262 267 274 266 234 227 107 115 114 117 122 147 139 114 102 112 113 117 294 184 132 94 55 254 98 127 203 243 255 191 160 152 148 152 163 170 174 170 161 160 164 164 161
354 353 350 347 343 340 337 337 338 338 341 343 343 343 335 325 317 319 328 326 314 309 314 328 305 206 21 283 281 300 287 288 270 232 213 201 201 213 211 209 217 222 225 233 246 260 272 279 255 172 92 117 128 123 117 120 172 125 117 109 91 109 131 158 194 138 111 171 267 101 146 202 234 225 180 165 160 153 158 168 173 173 164 155 158 161 162 164
354 352 349 345 340 338 335 334 334 334 337 339 338 339 334 320 307 310 314 311 302 279 300 5 332 154 5 290 294 303 260 260 257 230 223 220 209 211 215 215 225 230 235 240 247 258 268 276 211 136 112 127 133 125 98 70 346 306 114 151 170 128 141 145 239 3 120 141 22 70 150 186 220 213 181 170 170 158 159 169 169 166 159 150 156 161 161 163
354 352 348 343 338 336 334 333 332 332 335 336 334 334 332 315 301 304 304 300 283 254 243 316 349 70 268 280 301 299 244 240 247 221 228 233 221 218 212 211 232 236 242 247 250 258 269 304 179 152 117 129 145 129 99 55 243 281 83 124 167 143 152 140 151 208 126 122 77 52 102 247 238 199 138 166 178 164 159 165 162 160 154 146 154 161 160 159
353 350 347 342 338 337 335 333 333 333 333 332 333 334 332 315 303 303 259 193 172 222 274 283 324 58 274 285 287 271 260 239 228 225 233 228 221 224 207 194 227 233 256 273 260 250 293 5 111 133 130 156 178 155 144 199 196 183 160 146 140 160 179 157 156 175 148 118 103 77 274 262 268 188 124 138 171 166 161 161 158 159 155 146 156 163 161 157
351 349 347 343 341 339 336 334 334 333 332 331 335 337 335 330 327 328 152 139 120 143 299 235 165 75 279 277 274 273 260 212 204 223 234 215 215 228 209 192 208 183 121 338 272 238 146 39 68 148 194 185 189 184 187 208 186 165 167 156 154 167 184 159 142 156 149 127 129 141 245 268 297 14 355 1 130 149 148 160 159 159 157 150 161 167 162 160
350 348 346 345 343 338 335 334 333 332 333 332 336 343 345 354 8 10 144 160 197 223 252 220 184 256 285 271 281 297 173 190 194 203 223 216 197 202 199 191 160 154 168 168 217 244 133 114 207 205 209 210 206 194 203 220 177 147 149 149 159 158 137 135 113 143 153 130 152 164 190 282 324 6 340 338 346 90 95 153 165 164 164 155 167 173 162 167
349 347 346 345 341 336 332 331 329 330 330 329 335 352 340 299 348 325 312 271 245 224 229 229 198 221 262 266 279 291 179 189 317 231 227 236 155 152 201 164 132 220 223 172 199 287 118 163 227 222 214 222 221 210 218 211 158 146 147 142 149 146 126 82 92 152 166 113 157 166 152 191 301 321 304 348 3 39 68 109 162 173 174 161 169 177 166 168
348 347 344 342 338 334 330 327 327 326 324 327 335 350 238 273 290 306 304 297 293 264 237 243 213 222 254 261 268 271 85 68 306 277 226 210 143 162 230 139 150 227 234 154 230 310 140 217 231 223 218 227 235 236 231 189 155 152 144 139 148 141 109 60 85 155 168 81 156 162 141 135 339 302 290 356 43 318 33 117 134 177 189 179 174 174 166 165
348 345 342 339 335 332 328 325 324 321 324 328 319 287 284 299 308 310 299 256 296 288 253 241 219 226 251 263 259 229 127 170 260 283 214 169 155 177 168 165 192 225 223 169 184 168 195 235 230 220 215 222 236 234 216 185 155 153 149 144 153 159 155 125 154 158 152 41 132 131 114 56 351 318 292 278 134 291 295 266 305 237 233 225 191 173 163 166
346 343 341 334 331 331 327 324 322 322 332 324 308 311 336 325 309 306 298 251 287 282 258 227 213 217 240 265 227 180 168 187 195 263 210 165 155 176 165 186 194 219 233 194 185 190 222 236 217 213 219 214 227 230 204 186 174 175 169 155 157 174 182 138 142 144 104 40 114 118 109 296 293 275 265 258 125 266 285 304 319 284 236 248 221 183 166 168
344 342 338 332 330 329 327 325 318 328 329 317 309 345 1 351 319 302 317 13 301 289 283 225 201 215 233 225 187 178 148 212 215 227 203 176 160 148 194 202 173 221 237 206 191 208 239 246 185 202 232 219 225 229 195 182 180 187 186 175 167 170 155 123 136 137 99 68 173 146 132 203 217 238 244 255 274 241 224 217 275 273 259 273 251 202 172 169
343 339 336 332 326 326 330 328 318 328 326 311 326 345 348 344 337 330 48 41 317 298 323 93 159 229 260 181 177 127 62 291 249 199 195 201 177 134 231 268 202 223 222 203 199 206 241 236 179 204 229 222 228 232 211 193 166 183 208 180 159 150 139 141 148 146 144 191 201 181 149 140 190 231 226 218 240 241 222 202 229 251 257 260 250 213 178 172
341 336 334 330 324 328 331 309 317 326 320 320 337 340 339 339 336 333 57 44 329 310 303 289 85 187 260 197 155 80 105 287 300 181 193 204 175 126 193 261 315 251 240 178 226 236 230 208 176 201 218 223 226 229 234 196 157 230 212 160 150 149 149 155 154 147 169 136 149 203 186 107 188 220 208 193 208 231 230 217 218 233 240 243 246 226 186 176
339 334 331 327 322 323 319 304 313 319 310 329 338 336 331 332 330 341 86 67 315 319 263 255 266 281 271 192 145 121 208 224 74 207 215 193 178 125 178 241 258 262 284 267 244 263 232 192 192 195 194 216 221 224 222 168 147 231 165 146 154 156 151 156 152 125 129 102 115 229 230 135 220 215 175 179 201 220 224 216 209 217 225 233 238 226 192 181
337 332 326 323 319 316 316 304 299 305 320 334 340 334 328 328 334 56 87 72 263 262 251 14 299 268 300 83 187 232 240 179 161 233 226 177 186 140 185 232 236 269 267 191 219 271 260 207 198 176 172 209 217 226 210 159 152 166 131 125 129 134 141 148 142 115 120 105 185 216 211 173 232 202 156 170 209 220 220 213 206 208 214 220 227 220 193 182
334 329 320 317 314 311 314 305 298 320 335 332 331 328 328 332 32 70 37 27 208 254 252 66 289 206 147 94 283 241 224 220 208 231 37 131 182 108 227 241 224 275 278 229 230 253 257 241 195 161 180 204 199 213 204 161 151 133 118 107 93 101 131 124 76 89 111 296 235 200 202 196 217 213 181 185 207 210 208 205 205 210 212 213 219 216 192 181
332 325 315 310 306 303 303 301 308 331 328 323 326 329 337 11 75 77 42 123 192 290 322 257 268 183 169 199 259 240 187 218 225 122 108 22 34 39 304 324 351 325 322 324 287 265 281 303 259 211 190 154 119 117 326 40 106 116 119 120 107 89 351 38 15 31 100 269 246 185 190 202 232 230 206 210 215 207 198 196 199 205 210 210 213 209 192 182
331 322 310 303 300 290 274 280 303 316 314 318 330 341 28 50 31 98 228 43 36 281 259 227 236 228 192 192 227 234 165 182 215 132 156 147 123 217 203 193 176 21 343 312 313 307 298 271 261 277 264 118 95 52 345 359 51 96 123 126 113 110 316 87 312 335 179 256 241 164 170 202 251 237 208 211 219 209 196 196 195 197 202 206 209 201 191 184
332 321 309 302 297 288 280 288 301 307 307 319 341 16 79 64 347 259 284 326 228 225 229 222 226 232 206 184 223 226 170 161 181 172 177 148 159 239 236 212 180 132 252 270 310 319 307 304 316 359 318 229 112 109 198 261 28 95 140 149 137 139 160 192 222 197 216 270 281 142 157 231 273 265 211 204 209 205 196 196 193 192 195 202 205 193 184 185
331 322 312 303 294 287 285 294 303 302 305 329 23 50 52 54 266 299 339 311 271 254 259 267 250 220 197 216 217 167 131 313 182 160 164 114 84 274 298 270 213 172 179 273 285 215 130 305 285 195 244 240 123 143 163 158 39 84 179 160 147 152 158 180 192 181 197 237 82 122 161 222 227 254 223 202 201 195 191 193 189 188 191 196 201 191 181 187
333 325 316 304 294 285 284 301 309 304 313 25 59 50 50 216 271 333 331 273 299 322 323 318 308 74 296 262 228 149 126 235 191 152 161 162 153 218 279 301 252 160 104 11 276 216 139 241 255 253 232 164 149 197 137 103 25 288 197 128 151 179 154 149 177 166 153 128 115 152 217 231 202 254 247 189 182 180 179 184 181 186 191 190 198 197 187 186
335 328 316 302 291 278 283 304 305 224 117 72 56 39 185 230 263 300 252 273 302 320 330 329 341 59 342 306 295 193 103 109 171 115 335 182 114 244 247 357 358 119 124 94 289 357 26 272 282 306 260 194 172 176 131 120 143 297 63 176 223 181 131 121 240 95 96 104 179 209 262 287 301 305 286 152 162 174 174 177 180 188 190 187 196 201 193 185
340 335 316 295 286 266 279 297 278 161 110 75 72 264 234 247 270 242 249 305 300 311 5 345 340 6 346 357 344 300 33 19 18 75 350 337 31 297 311 12 348 358 70 117 174 333 38 292 289 258 219 246 195 137 134 136 138 118 185 242 262 45 83 102 104 35 68 109 251 244 251 269 263 297 245 148 158 176 174 176 181 184 187 189 196 199 195 187
340 339 314 286 271 251 280 285 226 151 93 65 6 288 232 231 268 280 317 317 313 20 54 18 315 345 13 23 327 308 32 42 4 78 78 14 358 311 25 18 332 346 2 71 89 332 47 322 300 325 204 252 38 94 161 317 53 149 195 249 72 74 353 30 130 165 156 149 279 283 284 264 214 222 204 165 171 179 172 171 178 183 187 190 194 198 198 193
339 353 316 270 247 260 297 268 178 125 67 50 299 291 253 241 270 308 333 325 328 42 51 316 345 6 17 30 347 317 19 54 51 93 99 55 330 324 20 16 334 345 358 52 73 314 52 97 293 320 326 295 40 61 204 279 332 330 283 324 61 144 175 192 176 162 154 171 231 306 339 284 237 256 243 199 186 179 171 171 181 187 189 189 192 195 195 191
352 25 287 269 275 331 321 228 152 97 69 228 205 220 272 285 300 317 336 350 1 99 56 354 7 1 346 17 9 330 11 34 47 90 72 32 15 341 1 12 347 345 12 49 48 342 33 77 298 314 338 29 64 218 187 194 163 72 315 284 269 269 198 215 246 150 137 146 165 155 281 267 265 306 275 217 186 177 172 171 183 189 190 192 193 195 194 187
6 27 276 272 323 335 333 163 165 114 159 253 234 221 268 273 288 311 338 9 25 138 15 7 29 23 23 21 357 337 22 24 30 75 52 21 81 60 331 32 22 349 19 35 18 356 7 53 41 318 335 9 283 261 217 214 193 159 179 198 188 205 203 326 296 288 116 128 160 160 200 267 282 336 308 225 152 163 169 170 179 186 188 191 191 190 191 195
38 21 269 289 317 321 325 165 239 189 162 252 239 214 249 228 267 326 346 10 21 16 341 357 22 14 55 80 311 18 56 7 5 72 82 25 83 125 287 31 53 43 62 43 321 287 193 89 71 290 280 283 278 277 288 331 200 160 173 206 184 173 142 139 216 265 22 83 133 117 117 266 286 0 349 19 76 92 134 162 170 175 183 186 189 189 188 200
110 274 285 304 320 324 50 205 294 256 202 254 233 217 238 181 30 352 0 358 12 23 353 352 19 13 43 44 327 39 70 31 17 73 127 36 34 325 320 26 51 58 65 45 318 298 343 68 49 311 300 307 305 312 360 36 45 68 346 333 326 223 173 166 182 193 142 132 110 82 61 270 296 10 5 12 44 54 52 62 106 133 170 177 182 184 180 187
287 272 287 314 331 353 119 226 272 229 255 275 247 200 251 141 75 61 22 333 345 40 354 320 11 3 319 1 24 35 50 63 40 43 84 94 334 331 10 27 45 70 71 140 219 323 339 30 56 35 356 344 346 348 352 4 24 51 334 344 1 10 20 106 88 65 98 220 160 123 183 254 295 21 26 25 33 45 40 31 48 59 57 112 143 137 137 167
314 275 269 311 328 356 137 205 225 216 268 301 16 103 111 342 345 92 116 312 321 55 341 297 8 29 2 32 45 29 30 50 46 9 27 34 342 346 19 11 10 74 104 198 176 91 40 70 82 90 69 28 350 322 310 316 334 356 8 12 22 22 25 60 98 76 86 279 62 104 197 245 15 25 26 26 32 42 36 26 29 30 37 58 89 113 130 156
2 315 293 312 330 17 47 277 6 299 267 307 38 62 115 54 330 352 87 165 336 28 14 319 358 30 30 44 55 34 23 32 41 26 11 15 354 327 1 8 1 4 6 7 25 66 96 65 70 126 144 174 205 241 248 249 310 2 35 37 36 34 42 64 85 102 154 150 35 20 7 50 33 18 15 14 27 43 40 34 30 17 19 33 52 79 69 70
39 284 331 344 329 357 347 341 19 319 262 159 99 308 44 98 234 283 339 296 63 26 29 344 351 22 48 59 59 31 12 24 37 30 344 342 342 321 348 18 13 357 3 20 16 52 89 30 7 80 161 200 202 292 304 353 58 60 63 55 46 48 56 61 47 299 168 117 47 16 42 58 30 14 17 7 20 47 45 38 38 20 12 17 26 42 42 34
2 280 344 16 320 293 323 323 326 309 278 141 113 269 6 11 347 244 301 50 52 37 46 0 355 34 94 98 87 34 9 30 26 354 316 336 352 349 350 355 2 2 12 30 20 64 98 28 350 34 18 12 9 343 3 70 85 83 76 66 54 53 63 68 53 39 81 99 88 53 63 62 33 23 28 4 15 49 50 37 35 28 27 31 30 34 39 39
11 329 325 5 330 254 269 290 301 306 305 98 67 290 58 31 24 20 287 76 33 13 84 45 353 358 97 102 105 112 60 87 31 308 290 353 353 17 14 340 336 0 23 49 20 60 101 356 340 49 43 17 6 351 25 72 83 81 73 68 64 60 66 74 67 61 73 85 86 73 68 59 35 20 19 8 14 49 54 42 34 29 37 51 46 36 33 38
18 314 322 347 310 271 271 294 317 325 335 43 50 286 329 58 59 21 71 102 65 333 48 57 352 333 30 81 88 80 181 166 159 268 34 26 357 3 80 259 273 335 12 56 7 28 81 331 319 54 56 358 360 9 22 59 80 78 66 61 67 65 59 58 56 57 66 66 53 61 66 54 27 10 21 24 28 54 60 55 48 37 37 55 62 53 42 47
326 288 316 324 281 299 308 313 351 351 334 359 357 277 348 84 142 172 37 72 120 88 54 46 8 352 14 51 57 34 248 157 143 265 52 21 309 220 189 200 206 331 1 39 11 15 62 351 328 55 55 316 341 35 32 51 72 71 61 57 64 65 61 54 43 43 51 43 29 43 55 46 11 3 33 36 39 53 60 63 64 57 48 55 63 62 56 57
351 314 324 332 247 309 330 322 354 12 314 327 335 312 278 199 175 133 72 339 346 103 97 70 57 41 28 41 39 283 230 169 176 213 186 247 257 218 212 239 191 134 150 94 34 2 69 68 16 53 65 302 323 49 77 55 53 50 41 72 79 76 76 72 56 42 39 45 46 44 62 58 23 22 45 43 42 46 49 52 62 68 65 61 59 54 50 48